EW5967 Weather Reports


Display with metric or nautical units.
time (UTC)temp
F
wind
direction
speed
MPH
gust
MPH
rain 1hr
in
rain 24hr
in
rain mn
in
humidity
%
barometer
mb
20260502224055 79 97 3.0 8.0 0.00 0.00 0.00 9 1008.6
20260502223554 79 38 2.0 8.0 0.00 0.00 0.00 9 1008.6
20260502223054 79 148 4.0 8.0 0.00 0.00 0.00 10 1008.8
20260502222553 79 68 2.0 5.0 0.00 0.00 0.00 9 1008.8
20260502222056 79 206 1.0 7.0 0.00 0.00 0.00 9 1008.9
20260502221552 79 121 2.0 7.0 0.00 0.00 0.00 10 1009.1
20260502221152 79 76 1.0 8.0 0.00 0.00 0.00 10 1009.1
20260502220550 79 138 0.0 8.0 0.00 0.00 0.00 10 1009.2
20260502220055 78 97 5.0 8.0 0.00 0.00 0.00 10 1009.2
20260502215546 78 17 0.0 5.0 0.00 0.00 0.00 10 1009.4
20260502215045 78 35 2.0 5.0 0.00 0.00 0.00 10 1009.6
20260502214547 78 85 1.0 5.0 0.00 0.00 0.00 10 1009.7
20260502214043 78 184 2.0 5.0 0.00 0.00 0.00 10 1009.9
20260502213542 78 30 0.0 4.0 0.00 0.00 0.00 10 1010.0
20260502213042 78 30 1.0 4.0 0.00 0.00 0.00 10 1010.0
20260502212544 78 85 1.0 5.0 0.00 0.00 0.00 10 1010.1
20260502212040 78 63 1.0 6.0 0.00 0.00 0.00 10 1010.2
20260502211546 78 75 1.0 6.0 0.00 0.00 0.00 10 1010.3
20260502211037 78 15 2.0 9.0 0.00 0.00 0.00 10 1010.4
20260502210537 78 44 4.0 14.0 0.00 0.00 0.00 10 1010.5
20260502210037 78 33 6.0 14.0 0.00 0.00 0.00 11 1010.5
20260502205536 78 71 5.0 10.0 0.00 0.00 0.00 10 1010.6
20260502205039 78 312 1.0 9.0 0.00 0.00 0.00 10 1010.6
20260502204534 77 340 4.0 9.0 0.00 0.00 0.00 11 1010.7
20260502204033 78 102 3.0 8.0 0.00 0.00 0.00 11 1010.8
20260502203532 77 337 2.0 9.0 0.00 0.00 0.00 11 1010.8
20260502203033 77 9 3.0 9.0 0.00 0.00 0.00 10 1010.8
20260502202532 77 21 2.0 11.0 0.00 0.00 0.00 10 1010.9
20260502202033 78 21 5.0 11.0 0.00 0.00 0.00 10 1011.0
20260502201532 76 102 4.0 9.0 0.00 0.00 0.00 12 1011.1
20260502201030 76 93 2.0 12.0 0.00 0.00 0.00 11 1011.2
20260502200534 76 142 4.0 12.0 0.00 0.00 0.00 11 1011.3
20260502200031 76 155 2.0 10.0 0.00 0.00 0.00 11 1011.4
20260502195528 77 71 5.0 14.0 0.00 0.00 0.00 11 1011.6
20260502195027 78 90 5.0 14.0 0.00 0.00 0.00 11 1011.7
20260502194526 77 127 1.0 7.0 0.00 0.00 0.00 12 1011.8
20260502194025 76 117 0.0 8.0 0.00 0.00 0.00 11 1011.9
20260502193525 76 169 3.0 8.0 0.00 0.00 0.00 12 1012.0
20260502193025 76 139 0.0 13.0 0.00 0.00 0.00 12 1012.1
20260502192527 76 167 8.0 13.0 0.00 0.00 0.00 12 1012.1
20260502192024 76 46 1.0 6.0 0.00 0.00 0.00 11 1012.1
20260502191525 76 43 3.0 11.0 0.00 0.00 0.00 12 1012.2
20260502191031 76 95 1.0 11.0 0.00 0.00 0.00 11 1012.4
20260502190524 76 128 5.0 10.0 0.00 0.00 0.00 11 1012.4
20260502190030 76 254 0.0 8.0 0.00 0.00 0.00 13 1012.5
20260502185525 76 169 0.0 8.0 0.00 0.00 0.00 12 1012.5
20260502185022 76 175 1.0 8.0 0.00 0.00 0.00 11 1012.7
20260502184523 75 134 1.0 8.0 0.00 0.00 0.00 12 1012.7
20260502184022 75 168 3.0 8.0 0.00 0.00 0.00 12 1012.7
20260502183524 75 132 2.0 8.0 0.00 0.00 0.00 12 1012.8
20260502183022 76 78 3.0 8.0 0.00 0.00 0.00 12 1012.8
20260502182521 76 129 1.0 8.0 0.00 0.00 0.00 12 1012.9
20260502182021 76 130 3.0 8.0 0.00 0.00 0.00 12 1013.0
20260502181520 76 101 0.0 7.0 0.00 0.00 0.00 13 1013.0
20260502181022 75 101 1.0 7.0 0.00 0.00 0.00 13 1013.1
20260502180518 75 127 0.0 8.0 0.00 0.00 0.00 14 1013.1
20260502170513 73 33 3.0 11.0 0.00 0.00 0.00 13 1013.4
20260502164016 73 107 4.0 8.0 0.00 0.00 0.00 14 1013.6
20260502163511 73 142 3.0 8.0 0.00 0.00 0.00 13 1013.5
20260502163111 73 70 0.0 5.0 0.00 0.00 0.00 14 1013.5
20260502162512 73 74 2.0 7.0 0.00 0.00 0.00 14 1013.5
20260502162014 73 83 3.0 8.0 0.00 0.00 0.00 14 1013.5
20260502161509 73 91 3.0 8.0 0.00 0.00 0.00 14 1013.4
20260502161009 72 101 0.0 8.0 0.00 0.00 0.00 14 1013.4
20260502160509 72 96 3.0 8.0 0.00 0.00 0.00 14 1013.4
20260502152003 72 342 0.0 2.0 0.00 0.00 0.00 16 1013.2
20260502151502 72 342 0.0 0.0 0.00 0.00 0.00 15 1013.1
20260502151002 72 342 0.0 0.0 0.00 0.00 0.00 16 1013.1
20260502150600 71 342 0.0 1.0 0.00 0.00 0.00 15 1013.0
20260502130544 63 342 0.0 1.0 0.00 0.00 0.00 17 1012.2
20260502123541 64 342 1.0 3.0 0.00 0.00 0.00 16 1011.8
20260502123041 64 342 1.0 3.0 0.00 0.00 0.00 16 1011.8
20260502122541 64 342 1.0 3.0 0.00 0.00 0.00 16 1011.9
20260502122040 63 342 1.0 3.0 0.00 0.00 0.00 16 1011.8
20260502121540 63 342 1.0 3.0 0.00 0.00 0.00 16 1011.7
20260502121042 63 342 1.0 3.0 0.00 0.00 0.00 16 1011.8
20260502120540 63 342 0.0 2.0 0.00 0.00 0.00 16 1011.8
20260502115542 64 342 0.0 2.0 0.00 0.00 0.00 15 1011.7
20260502115038 64 342 0.0 1.0 0.00 0.00 0.00 15 1011.8
20260502114538 64 342 0.0 3.0 0.00 0.00 0.00 15 1011.9
20260502114035 65 342 1.0 3.0 0.00 0.00 0.00 15 1011.9
20260502113536 65 342 0.0 2.0 0.00 0.00 0.00 15 1011.8
20260502113035 65 342 1.0 3.0 0.00 0.00 0.00 15 1011.7
20260502112535 65 342 1.0 3.0 0.00 0.00 0.00 15 1011.7
20260502112034 65 342 0.0 3.0 0.00 0.00 0.00 15 1011.8
20260502111602 65 342 0.0 3.0 0.00 0.00 0.00 15 1011.7
20260502111033 65 342 1.0 3.0 0.00 0.00 0.00 15 1011.7
20260502110533 65 342 0.0 4.0 0.00 0.00 0.00 15 1011.7
20260502110034 65 342 1.0 4.0 0.00 0.00 0.00 15 1011.8
20260502105536 65 343 1.0 3.0 0.00 0.00 0.00 15 1011.7
20260502105031 65 343 1.0 3.0 0.00 0.00 0.00 15 1011.7
20260502104540 65 343 1.0 2.0 0.00 0.00 0.00 15 1011.7
20260502104031 65 343 0.0 2.0 0.00 0.00 0.00 14 1011.7
20260502103531 65 343 0.0 2.0 0.00 0.00 0.00 14 1011.7
20260502103035 65 343 0.0 2.0 0.00 0.00 0.00 15 1011.7
20260502102531 65 343 0.0 3.0 0.00 0.00 0.00 14 1011.7
20260502102030 66 343 0.0 3.0 0.00 0.00 0.00 14 1011.6
20260502101531 66 343 0.0 2.0 0.00 0.00 0.00 14 1011.7
20260502101029 66 343 0.0 3.0 0.00 0.00 0.00 14 1011.7
20260502100528 66 343 1.0 4.0 0.00 0.00 0.00 14 1011.7
20260502091522 67 345 1.0 5.0 0.00 0.00 0.00 13 1011.9
20260502091022 67 355 1.0 3.0 0.00 0.00 0.00 13 1011.9
20260502090521 67 355 0.0 3.0 0.00 0.00 0.00 13 1011.9
20260502071507 68 10 0.0 1.0 0.00 0.00 0.00 12 1012.1
20260502071008 68 10 0.0 3.0 0.00 0.00 0.00 12 1012.0
20260502070507 68 10 0.0 3.0 0.00 0.00 0.00 12 1012.0
20260502070013 69 10 0.0 3.0 0.00 0.00 0.00 12 1012.0
20260502065506 69 10 0.0 4.0 0.00 0.00 0.00 12 1012.0
20260502065007 69 10 0.0 4.0 0.00 0.00 0.00 12 1012.0
20260502064515 69 10 0.0 6.0 0.00 0.00 0.00 12 1011.9
20260502064005 69 10 3.0 6.0 0.00 0.00 0.00 12 1011.9
20260502063504 69 348 0.0 4.0 0.00 0.00 0.00 12 1011.9
20260502063006 69 355 1.0 5.0 0.00 0.00 0.00 12 1011.9
20260502062503 69 355 2.0 5.0 0.00 0.00 0.00 12 1011.9
20260502062006 69 346 1.0 5.0 0.00 0.00 0.00 12 1011.8
20260502061502 70 319 0.0 5.0 0.00 0.00 0.00 12 1011.8
20260502061002 70 14 0.0 8.0 0.00 0.00 0.00 12 1011.7
20260502060502 70 14 2.0 10.0 0.00 0.00 0.00 12 1011.7
20260502060002 70 80 4.0 10.0 0.00 0.00 0.00 12 1011.6
20260502055502 70 26 1.0 8.0 0.00 0.00 0.00 12 1011.6
20260502055002 70 25 2.0 9.0 0.00 0.00 0.00 12 1011.5
20260502054501 70 22 2.0 6.0 0.00 0.00 0.00 12 1011.5
20260502054002 70 30 2.0 6.0 0.00 0.00 0.00 12 1011.5
20260502053500 71 22 2.0 8.0 0.00 0.00 0.00 12 1011.5
20260502053002 71 15 3.0 10.0 0.00 0.00 0.00 12 1011.5
20260502052502 71 42 6.0 10.0 0.00 0.00 0.00 12 1011.5
20260502052104 71 31 3.0 9.0 0.00 0.00 0.00 12 1011.4
20260502051604 71 321 0.0 4.0 0.00 0.00 0.00 12 1011.2
20260502051100 71 321 1.0 4.0 0.00 0.00 0.00 12 1011.1
20260502050603 71 317 1.0 4.0 0.00 0.00 0.00 12 1011.1
20260502050101 71 316 0.0 5.0 0.00 0.00 0.00 12 1011.1
20260502045559 72 315 1.0 5.0 0.00 0.00 0.00 12 1011.0
20260502045058 72 317 1.0 5.0 0.00 0.00 0.00 12 1011.0
20260502044558 72 318 1.0 5.0 0.00 0.00 0.00 12 1010.8
20260502044058 72 320 1.0 5.0 0.00 0.00 0.00 12 1010.8
20260502043559 72 320 0.0 5.0 0.00 0.00 0.00 12 1010.8
20260502043119 72 321 0.0 4.0 0.00 0.00 0.00 12 1010.7
20260502042558 72 321 2.0 5.0 0.00 0.00 0.00 11 1010.7
20260502042058 72 320 2.0 4.0 0.00 0.00 0.00 11 1010.6
20260502041558 72 322 0.0 4.0 0.00 0.00 0.00 12 1010.5
20260502041057 72 321 1.0 5.0 0.00 0.00 0.00 12 1010.5
20260502040557 72 335 2.0 5.0 0.00 0.00 0.00 12 1010.4
20260502040057 72 346 0.0 3.0 0.00 0.00 0.00 12 1010.4
20260502035557 72 346 1.0 4.0 0.00 0.00 0.00 12 1010.3
20260502035057 72 347 1.0 5.0 0.00 0.00 0.00 12 1010.1
20260502034556 72 5 0.0 5.0 0.00 0.00 0.00 12 1010.1
20260502034056 73 5 1.0 8.0 0.00 0.00 0.00 13 1010.1
20260502033555 73 5 1.0 8.0 0.00 0.00 0.00 13 1009.9
20260502033056 73 325 0.0 3.0 0.00 0.00 0.00 13 1009.9
20260502032555 73 325 0.0 3.0 0.00 0.00 0.00 12 1009.7
20260502032055 73 325 0.0 3.0 0.00 0.00 0.00 12 1009.6
20260502031557 73 325 1.0 4.0 0.00 0.00 0.00 12 1009.5
20260502031055 74 325 0.0 5.0 0.00 0.00 0.00 12 1009.4
20260502030555 74 325 1.0 5.0 0.00 0.00 0.00 12 1009.3
20260502030055 74 327 1.0 3.0 0.00 0.00 0.00 12 1009.3
20260502025554 74 327 0.0 4.0 0.00 0.00 0.00 12 1009.2
20260502025054 74 326 1.0 4.0 0.00 0.00 0.00 12 1009.2
20260502024554 74 330 0.0 5.0 0.00 0.00 0.00 12 1009.1
20260502024053 74 330 1.0 6.0 0.00 0.00 0.00 12 1009.0
20260502023555 74 331 2.0 6.0 0.00 0.00 0.00 12 1008.9
20260502023057 75 333 1.0 6.0 0.00 0.00 0.00 12 1008.9
20260502022554 75 337 1.0 5.0 0.00 0.00 0.00 12 1008.9
20260502022052 75 346 2.0 5.0 0.00 0.00 0.00 12 1008.9
20260502021553 75 360 2.0 6.0 0.00 0.00 0.00 12 1008.8
20260502021054 75 11 2.0 6.0 0.00 0.00 0.00 12 1008.8
20260502020553 75 336 1.0 6.0 0.00 0.00 0.00 12 1008.8
20260502020053 75 329 2.0 8.0 0.00 0.00 0.00 12 1008.8
20260502015552 76 350 3.0 8.0 0.00 0.00 0.00 12 1008.7
20260502015053 76 348 2.0 6.0 0.00 0.00 0.00 12 1008.7
20260502014557 76 321 1.0 6.0 0.00 0.00 0.00 12 1008.6
20260502014051 76 5 1.0 6.0 0.00 0.00 0.00 12 1008.6
20260502013555 77 351 2.0 9.0 0.00 0.00 0.00 12 1008.6
20260502013057 77 331 3.0 9.0 0.00 0.00 0.00 11 1008.6
20260502012551 78 9 2.0 10.0 0.00 0.00 0.00 11 1008.6
20260502012051 77 322 3.0 10.0 0.00 0.00 0.00 11 1008.6
20260502011605 77 5 3.0 8.0 0.00 0.00 0.00 11 1008.5
20260502011050 78 347 2.0 5.0 0.00 0.00 0.00 11 1008.5
20260502010550 78 31 3.0 9.0 0.00 0.00 0.00 11 1008.5
20260502010050 78 326 1.0 8.0 0.00 0.00 0.00 11 1008.6
20260502005550 78 15 4.0 11.0 0.00 0.00 0.00 11 1008.6
20260502005052 78 314 4.0 11.0 0.00 0.00 0.00 11 1008.5
20260502004600 78 298 2.0 11.0 0.00 0.00 0.00 11 1008.5
20260502004048 78 318 5.0 12.0 0.00 0.00 0.00 11 1008.5
20260502003548 78 57 4.0 12.0 0.00 0.00 0.00 11 1008.5
20260502003047 79 20 4.0 12.0 0.00 0.00 0.00 11 1008.5
20260502002547 79 332 4.0 13.0 0.00 0.00 0.00 11 1008.5
20260502002147 79 355 5.0 12.0 0.00 0.00 0.00 11 1008.5
20260502001547 78 355 5.0 12.0 0.00 0.00 0.00 11 1008.5
20260502001047 77 5 3.0 15.0 0.00 0.00 0.00 11 1008.6
20260502000549 78 14 7.0 15.0 0.00 0.00 0.00 11 1008.6
20260502000105 78 34 8.0 13.0 0.00 0.00 0.00 11 1008.6
20260501235546 78 53 4.0 11.0 0.00 0.00 0.00 12 1008.5
20260501235049 78 53 2.0 13.0 0.00 0.00 0.00 11 1008.5
20260501234545 78 347 5.0 13.0 0.00 0.00 0.00 11 1008.6
20260501234044 78 37 5.0 13.0 0.00 0.00 0.00 11 1008.6
20260501233544 78 38 4.0 13.0 0.00 0.00 0.00 11 1008.6
20260501233044 78 9 5.0 13.0 0.00 0.00 0.00 11 1008.6
20260501232546 78 41 5.0 12.0 0.00 0.00 0.00 11 1008.6
20260501232048 78 46 6.0 13.0 0.00 0.00 0.00 11 1008.6
20260501231550 78 52 7.0 15.0 0.00 0.00 0.00 11 1008.6
20260501231043 78 23 9.0 15.0 0.00 0.00 0.00 11 1008.6
20260501230544 78 15 5.0 9.0 0.00 0.00 0.00 11 1008.6
20260501230042 79 355 2.0 10.0 0.00 0.00 0.00 11 1008.6
20260501225541 78 12 4.0 13.0 0.00 0.00 0.00 11 1008.8
20260501225040 78 36 5.0 19.0 0.00 0.00 0.00 11 1008.7
20260501224541 80 11 6.0 19.0 0.00 0.00 0.00 11 1008.9